Hourly Data Report for October 30, 2016

All times are specified in Local Standard Time (LST). Add 1 hour to adjust for Daylight Saving Time where and when it is observed.

ARVIAT A
NUNAVUT

61°05'38.000" N
94°04'18.000" W
10.40 m
2300427
71174
YEK

Download Data

Hourly Data (October 2016)
Hourly Data Report for October 30, 2016
Temp Definition
°C
Dew Point Temp Definition
°C
Rel Hum Definition
%
Wind Dir Definition
10's deg

Wind Spd Definition
km/h
Visibility Definition
km
Stn Press Definition
kPa
Hmdx Definition


Wind Chill Definition


Weather Definition


TIME
00:00 Legend Double Dagger -12.9 -14.8 86 30 30 16.1 100.90   -23 LegendNANA
01:00 Legend Double Dagger -12.3 -14.2 86 28 34 16.1 100.80   -23 LegendNANA
02:00 Legend Double Dagger -11.4 -13.4 85 29 43 14.5 100.72   -23 Snow
03:00 Legend Double Dagger -10.3 -12.0 87 29 45 4.8 100.64   -22 Snow
04:00 Legend Double Dagger -10.2 -11.7 89 29 46 8.1 100.67   -22 Snow
05:00 Legend Double Dagger -8.2 -9.1 93 31 52 1.6 100.77   -19 Snow
06:00 Legend Double Dagger -10.6 -13.0 83 33 46 16.1 100.99   -22 LegendNANA
07:00 Legend Double Dagger -11.7 -13.7 85 33 37 16.1 101.12   -23 LegendNANA
08:00 Legend Double Dagger -12.2 -14.2 85 33 34 16.1 101.24   -23 LegendNANA
09:00 Legend Double Dagger -12.7 -14.6 86 33 32 16.1 101.31   -23 LegendNANA
10:00 Legend Double Dagger -12.5 -14.1 88 31 26 16.1 101.38   -22 LegendNANA
11:00 Legend Double Dagger -11.6 -13.6 85 31 28 16.1 101.42   -21 LegendNANA
12:00 Legend Double Dagger -10.8 -13.3 82 30 22 16.1 101.44   -19 LegendNANA
13:00 Legend Double Dagger -10.2 -13.5 77 30 22 16.1 101.46   -18 LegendNANA
14:00 Legend Double Dagger -9.2 -12.9 75 27 18 16.1 101.48   -16 LegendNANA
15:00 Legend Double Dagger -8.1 -10.3 84 27 13 16.1 101.46   -14 LegendNANA
16:00 Legend Double Dagger -6.3 -8.4 85 31 35 16.1 101.42   -15 Snow
17:00 Legend Double Dagger -6.9 -8.7 87 32 37 16.1 101.46   -16 Snow
18:00 Legend Double Dagger -7.6 -9.2 88 30 34 16.1 101.46   -17 Snow
19:00 Legend Double Dagger -8.0 -9.5 89 29 26 16.1 101.46   -16 Snow
20:00 Legend Double Dagger -8.6 -10.1 89 31 30 16.1 101.45   -18 Snow
21:00 Legend Double Dagger -9.5 -10.7 91 30 26 16.1 101.43   -18 Snow
22:00 Legend Double Dagger -10.0 -11.2 91 29 26 16.1 101.36   -19 Snow
23:00 Legend Double Dagger -11.2 -12.4 91 29 18 16.1 101.36   -19 LegendNANA

Notes on Data Quality.

Legend

  • E = Estimated
  • M = Missing
  • NA = Not Available
  • ‡ = Partner data that is not subject to review by the National Climate Archives
Date modified: